sat.trackr.live / text

‹ back to catalog

EXCITE

NORAD 43819 · 2018-099BP

PAYLOAD ACTIVE UNKNOWN

§ Identity

Operator
Country
US
Launch date
2018-12-03
Launch site
AFWTR
Launch vehicle
Mass (kg)
RCS (m²)

External: N2YO · Heavens-Above · Gunter

§ Orbital elements

Epoch: 2026-09-20T01:11:09.040416Z

Period
95.56 min
Inclination
97.3895°
Eccentricity
0.0018894
Mean motion
15.06830011 rev/d
Perigee alt
532.8 km
Apogee alt
559.0 km
Semi-major
6,924.0 km
B*
1.2092e-4
RAAN
298.0522°
Arg perigee
30.9463°
Mean anomaly
329.2874°
Rev number
42,603

§ Raw data

EXCITE1 43819U 18099BP  26263.04941019  .00001749  00000+0  12092-3 0  99962 43819  97.3895 298.0522 0018894  30.9463 329.2874 15.06830011426036

JSON: /api/v1/satellites/43819 · /tle

For live sub-satellite position, see the globe view (requires WebGL).

§ Visibility from observer

Set your observer location to see the next 7 days of passes ≥ 10°. The values pass through the URL so the page stays shareable.

No JS? Fill the form by hand. The geolocation button needs JavaScript.